#timestamp,LO_Frequency,Hit,StdDev 
1605024015.7,286046998.2,N
1605024035.5,286046998.7,N
1605024055.4,286046998.5,N
1605024075.2,286046998.5,N
1605024095.0,286046998.4,N
1605024095.9,286046998.4,N
1605024115.8,286046998.6,N
1605024135.6,286046998.4,N
1605024155.4,286047000.8,N
1605024175.3,286046998.9,N
1605024195.1,286046998.3,N
1605024196.0,286046998.3,N
1605024215.8,286046998.4,N
1605024235.7,286047001.2,N
1605024255.5,286047001.1,N
1605024275.3,286047000.8,N
1605024295.2,286046998.3,N
1605024315.9,286046998.3,N
1605024335.7,286046999.0,N
1605024355.6,286046998.7,N
1605024375.4,286046999.4,N
1605024395.2,286046998.7,N
1605024415.1,286046999.5,N
1605024416.0,286046999.5,N
1605024435.8,286046996.7,Y
1605024455.6,286046998.4,P
1605024475.5,286047001.2,P
1605024495.3,286046999.0,N
1605024515.1,286046998.5,N
1605024535.9,286046998.3,N
1605024555.7,286046998.4,N
1605024575.5,286046999.4,N
1605024595.4,286046999.2,N
1605024615.2,286046998.8,N
1605024635.0,286046998.5,N
1605024635.9,286046998.5,N
1605024655.8,286046998.1,N
1605024675.6,286046999.3,N
1605024695.4,286046998.4,N
1605024715.3,286046998.7,N
1605024735.1,286046998.7,N
1605024736.0,286046998.7,N
1605024755.8,286046996.9,Y
1605024775.7,286046998.2,P
1605024795.5,286046998.3,P
1605024815.3,286046998.3,P
1605024835.2,286046998.1,Y
1605024855.0,286046999.7,P
1605024855.9,286046999.7,N
1605024875.7,286046999.9,N
1605024895.6,286047000.1,N
1605024915.4,286046999.9,N
1605024935.2,286047000.3,N
1605024955.1,286047000.4,N
1605024956.0,286047000.4,N
1605024975.8,286047000.7,N
1605024995.6,286047000.4,N
1605025015.5,286046999.9,N
1605025035.3,286047000.4,N
1605025055.1,286047000.3,N
1605025075.9,286047000.9,N
1605025095.7,286047000.5,N
1605025115.5,286047000.3,N
1605025135.4,286047000.7,N
1605025155.2,286047000.4,N
1605025175.0,286046998.6,N
1605025175.9,286046998.6,N
1605025195.8,286047000.9,N
1605025215.6,286046998.6,N
1605025235.4,286046999.0,N
1605025255.3,286047001.1,N
1605025275.1,286046998.7,N
1605025295.8,286046998.8,N
1605025315.7,286047001.2,N
1605025335.5,286047000.7,N
1605025355.3,286046998.5,N
1605025375.2,286047000.9,N
1605025395.0,286047000.7,N
1605025395.9,286047000.7,N
1605025415.7,286047000.6,N
1605025435.6,286047000.1,N
1605025455.4,286047000.4,N
1605025475.2,286047000.0,N
1605025495.1,286047000.5,N
1605025496.0,286047000.5,N
1605025515.8,286046998.1,N
1605025535.6,286047000.6,N
1605025555.5,286046999.7,N
1605025575.3,286047000.1,N
1605025595.1,286047000.1,N
1605025615.9,286047002.6,N
1605025635.7,286047000.3,N
1605025655.5,286047002.6,N
1605025675.4,286047000.0,N
1605025695.2,286047002.7,N
1605025715.0,286046999.8,N
1605025715.9,286046999.8,N
1605025735.8,286047000.1,N
1605025755.6,286047000.5,N
1605025775.4,286047000.2,N
1605025795.3,286046999.7,N
1605025815.1,286047002.5,N
1605025835.8,286047001.6,N
1605025855.7,286047001.5,N
1605025875.5,286047003.9,Y
1605025895.3,286047004.1,P
1605025915.2,286047004.1,N
1605025935.0,286047005.6,P
1605025935.9,286047005.6,N
1605025955.7,286047005.6,Y
1605025975.6,286046999.9,P
1605025995.4,286047001.2,N
1605026015.2,286047001.0,N
1605026035.1,286047000.2,N
1605026036.0,286047000.2,N
1605026055.8,286047002.5,N
1605026075.6,286047002.6,N
1605026095.5,286047002.3,N
1605026115.3,286047002.0,N
1605026135.1,286047001.7,N
1605026155.9,286047004.1,Y
1605026175.7,286047002.6,P
1605026195.5,286047002.0,P
1605026215.4,286047002.3,P
1605026235.2,286047001.6,Y
1605026255.0,286047000.1,P
1605026256.0,286047000.1,N
1605026275.8,286047001.0,N
1605026295.6,286047000.7,N
1605026315.4,286047000.1,N
1605026335.3,286047002.3,Y
1605026355.1,286047000.3,P
1605026375.9,286047000.3,N
1605026395.7,286047002.4,P
1605026415.5,286047002.5,N
1605026435.4,286047002.2,N
1605026455.2,286047002.6,N
1605026475.0,286047004.1,Y
1605026475.9,286047004.1,P
1605026495.8,286047002.3,N
1605026515.6,286047002.6,N
1605026535.4,286047002.2,N
1605026555.3,286047001.9,N
1605026575.1,286047002.0,N
1605026576.0,286047002.0,N
1605026595.8,286047004.3,Y
1605026615.7,286047000.6,P
1605026635.5,286047000.1,N
1605026655.3,286047002.2,N
1605026675.2,286047002.2,N
1605026695.9,286047002.3,N
1605026715.7,286047002.5,N
1605026735.6,286047002.6,N
1605026755.4,286047001.5,N
1605026775.2,286047001.8,N
1605026795.1,286047001.6,N
1605026796.0,286047001.6,N
1605026815.8,286047003.9,Y
1605026835.6,286047001.6,P
1605026855.5,286047001.7,P
1605026875.3,286047004.0,P
1605026895.1,286047001.8,N
1605026915.9,286047001.6,N
1605026935.7,286047004.0,Y
1605026955.5,286047002.6,P
1605026975.4,286047001.6,P
1605026995.2,286047002.5,P
1605027015.0,286047002.4,Y
1605027015.9,286047002.4,P
1605027035.8,286046999.9,N
1605027055.6,286046999.8,N
1605027075.4,286047002.6,N
1605027095.3,286047001.6,N
1605027115.1,286047001.7,N
1605027116.0,286047001.7,N
1605027135.8,286047002.2,N
1605027155.7,286047002.4,N
1605027175.5,286047004.3,Y
1605027195.3,286047002.8,P
1605027215.2,286047002.2,P
1605027235.9,286047001.4,N
1605027255.7,286047002.0,Y
1605027275.6,286047002.7,P
1605027295.4,286047002.1,P
1605027315.2,286047001.3,P
1605027335.1,286047001.4,N
1605027336.0,286047001.4,N
1605027355.8,286047003.9,Y
1605027375.6,286046999.8,P
1605027395.5,286047002.4,N
1605027415.3,286047002.1,N
1605027435.1,286046999.7,N
1605027455.9,286047001.5,N
1605027475.7,286047001.7,N
1605027495.5,286047004.3,Y
1605027515.4,286047002.4,P
1605027535.2,286047002.8,P
1605027555.0,286046999.9,N
1605027555.9,286046999.9,N
1605027575.8,286047002.6,N
1605027595.6,286047001.6,N
